ブランパン彗星

289P/Blanpain (2003)

English version
Home page
Updated on July 28, 2013

---------------------------------------------------------------------

・ プロフィール

符号 289P/2003 WY25
再発見日 2003年11月22日
再発見光度 18.1等
再発見者 Catalina Sky Survey

・ 軌道要素

Epoch 2003 Dec. 27.0 TT = JDT 2453000.5
T 2003 Dec. 11.57753 TT                                 MPC
q   1.0000683            (2000.0)            P               Q
n   0.18210730     Peri.    9.06939     +0.20097548     -0.97481347
a   3.0826045      Node    69.38276     +0.89216083     +0.14138446
e   0.6755768      Incl.    5.92915     +0.40454655     +0.17247935
P   5.41
From 275 observations 1819 Dec. 14-2013 July 6, mean residual 0".77.
   Assumed non-gravitational parameters A1 = +0.10 +/- 0.00,
   A2 = -0.0054 +/- 0.0001 due to S. Nakano.

・ 星図

・ 光度変化

        H = 20.5  G = 0.15

---------------------------------------------------------------------

軌道要素はM.P.E.C. 2013-N21に掲載されたものです。
星図は StellaNavigator Ver.2.0 for Windows (アストロアーツ 編著 / アスキー出版局刊) で作成したものです。
光度グラフはComet for Windowsで作成したものです。

---------------------------------------------------------------------

Copyright(C) Seiichi Yoshida (comet@aerith.net). All rights reserved.